Simultaneous Nadir Overpasses (SNOs) Predictions

Prediction of SNOs between AQUA and METOP-C Satellite Orbit:

Table of predicted SNOs for the next 14.0 days since TLE Epoch: 9/26/2025
Index Date (AQUA) Time (AQUA) Lat,Lon (AQUA) SZA (AQUA ) Date (METOP-C) Time (METOP-C) Lat,Lon (METOP-C) SZA (METOP-C ) Distance(km) Time Diff (sec)
1 09/28/2025 15:09:55 -77.00, 136.77 100.71 09/28/2025 15:09:12 -76.97, 136.73 100.74 3.29 43
2 09/28/2025 15:59:14 77.04, -55.70 79.35 09/28/2025 15:59:51 77.04, -55.68 79.35 0.54 37
3 10/01/2025 03:08:17 76.99, 137.28 80.27 10/01/2025 03:07:25 77.02, 137.35 80.29 3.24 52
4 10/01/2025 03:57:35 -77.04, -55.22 99.68 10/01/2025 03:58:06 -77.02, -55.30 99.69 2.62 31
5 10/03/2025 15:06:36 -77.02, 137.68 98.74 10/03/2025 15:05:39 -77.00, 137.70 98.77 2.42 57
6 10/03/2025 15:55:55 77.07, -54.83 81.32 10/03/2025 15:56:18 77.06, -54.72 81.32 3.00 23
7 10/06/2025 03:04:55 77.03, 138.13 82.24 10/06/2025 03:03:52 77.02, 138.24 82.23 3.00 63
8 10/06/2025 03:54:13 -77.07, -54.34 97.72 10/06/2025 03:54:32 -77.07, -54.21 97.70 3.15 19
9 10/08/2025 15:03:11 -77.01, 138.71 96.82 10/08/2025 15:02:06 -77.03, 138.71 96.81 2.04 65
10 10/08/2025 15:52:30 77.07, -53.83 83.25 10/08/2025 15:52:45 77.08, -53.73 83.27 3.15 15



Historial Predications of SNOs between AQUA and METOP-C
